Location: Wingville
(42.9917°N, 90.4915°W)
Time: 14:01:44
(UTC+00:00)

Cosmos 1743 Rocket - Pass Details

Date: 04 December 2022
Orbit: 603 x 632 km, 82.6° (Epoch: 01 February)

Event Time Altitude Azimuth Distance (km) Brightness Sun altitude
Rises 00:30:57 0° 353° (N) 2,919 7.0 -21.9°
Reaches altitude 10° 00:33:12 10° 355° (N) 2,011 6.1 -22.3°
Maximum altitude 00:37:40 76° 82° (E) 653 3.4 -23.1°
Drops below altitude 10° 00:42:07 10° 168° (SSE) 2,006 6.1 -23.9°
Sets 00:44:21 0° 170° (S) 2,910 7.0 -24.3°
